Location: Moscow
(55.7500°N, 37.5830°E)
Time: 10:10:09
(UTC+03:00)

Vanguard 3 - Pass Details

Date: 08 December 2021
Orbit: 508 x 3260 km, 33.3° (Epoch: 19 January)

Event Time Altitude Azimuth Distance (km) Brightness Sun altitude
Rises 02:24:50 0° 211° (SSW) 6,637 - -49.9°
Reaches altitude 10° 02:30:10 10° 200° (SSW) 5,902 - -49.3°
Exits shadow 02:42:27 26° 160° (SSE) 4,966 10.9 -48.0°
Maximum altitude 02:44:01 26° 153° (SSE) 4,949 10.9 -47.8°
Drops below altitude 10° 02:57:41 10° 107° (ESE) 5,854 11.8 -46.2°
Sets 03:02:53 0° 97° (E) 6,579 12.3 -45.6°
